Regional Weather Roundup
Issued by NWS

Home | Current Version | Previous Version | Graphics & Text | Print | Product List | Glossary On
Versions: 1 2 3 4 5 6 7 8 9 10 11 12 13 14 15 16 17 18 19 20 21 22 23 24 25 26 27 28 29 30 31 32 33 34 35 36 37 38 39 40 41 42 43 44 45 46 47 48 49 50
000
ASUS44 KMEG 230710
RWRTN
TENNESSEE HOURLY STATE WEATHER ROUNDUP
NATIONAL WEATHER SERVICE MEMPHIS TN
200 AM CDT THU OCT 23 2014

TNZ002-004-019-021-049-052-054-088>092-230800-
WEST TENNESSEE

CITY           SKY/WX    TMP DP  RH WIND       PRES   REMARKS
MEMPHIS INTL   CLEAR     49  42  77 CALM      30.19S
NWS MEMPHIS      N/A     46 N/A N/A MISG        N/A
JACKSON        CLEAR     40  39  97 CALM      30.19S FOG
DYERSBURG      CLEAR     45  32  61 NE5       30.23R
UNION CITY     CLEAR     39  39 100 CALM      30.21R
PARIS          CLEAR     39  37  93 NE5       30.21S
HUNTINGDON     CLEAR     42  38  86 CALM      30.21S
LEXINGTON      CLEAR     39  39 100 N3        30.18S
SAVANNAH       CLEAR     37  37 100 CALM      30.19R
$$

TNZ008-025-027-028-033-062-065-066-230800-
NORTH MIDDLE TENNESSEE

CITY           SKY/WX    TMP DP  RH WIND       PRES   REMARKS
NASHVILLE      CLEAR     44  41  89 NE5       30.23R
CLARKSVILLE    CLEAR     43  40  89 NE3       30.23R
SMYRNA         CLEAR     42  39  89 CALM      30.23S
COOKEVILLE     CLEAR     34  34 100 CALM      30.19F
CROSSVILLE     CLEAR     39  35  86 CALM      30.18F
$$

TNZ061-075-076-078-094-096-097-230800-
SOUTH MIDDLE TENNESSEE

CITY           SKY/WX    TMP DP  RH WIND       PRES   REMARKS
FAYETTEVILLE   CLEAR     43  39  87 N7        30.17R
TULLAHOMA      CLEAR     43  39  87 N3        30.18S
WINCHESTER     CLEAR     37  37 100 CALM      30.17S
MCMINNVILLE    CLEAR     39  39 100 CALM      30.18F
COLUMBIA       CLEAR    N/A N/A N/A CALM      30.18S
SHELBYVILLE    CLEAR     45  39  81 N5        30.21R
$$

TNZ017-018-042-046-047-230800-
NORTHEAST TENNESSEE

CITY           SKY/WX    TMP DP  RH WIND       PRES   REMARKS
TRI CITIES     CLOUDY    48  39  71 N7        30.19S
ELIZABETHTON   CLOUDY    45  39  81 CALM      30.18S
$$

TNZ012-013-036-069-073-074-230800-
CENTRAL EAST TENNESSEE

CITY           SKY/WX    TMP DP  RH WIND       PRES   REMARKS
KNOXVILLE      PTCLDY    42  38  85 N9        30.18F
OAK RIDGE      CLOUDY    46  41  82 CALM      30.21F
GATLINBURG     CLOUDY    41  39  93 CALM      30.20S
MORRISTOWN     CLOUDY    46  41  81 CALM      30.20F
$$

TNZ083-085-099-230800-
SOUTHEAST TENNESSEE

CITY           SKY/WX    TMP DP  RH WIND       PRES   REMARKS
CHATTANOOGA    CLEAR     48  41  76 N10       30.17F
$$

SKY/WX REPORTED AS FAIR MEANS FEW OR NO CLOUDS BELOW
12 THOUSAND FEET.




USA.gov is the U.S. government's official web portal to all federal, state and local government web resources and services.